Weather observations for the past three days for
Akhiok
Metric (Imperial)
Date Time (akdt) Wind (kph) Vis. (km) Weather Sky Cond. Temperature (ºC) Relative Humidity Wind Chill (°C) Heat Index (°C) Pressure Precipitation (cm)
Air Dwpt 6 hour altimeter (cm) sea level (mb) 1 hr 3 hr 6 hr
Max. Min.
05 09:56 Calm 2.41 Fog/Mist OVC002 11.1 11.1 11.1 10.6 100% 76.56 1020.6
05 08:56 S 9 2.41 Fog/Mist OVC002 10.6 10.6 100% 76.56 1020.5
05 07:56 S 11 1.61 Light Rain Fog/Mist OVC004 11.1 11.1 100% 76.53 1020.4
05 06:56 Calm 8.05 Fog/Mist OVC006 11.1 11.1 100% 76.53 1020.1
05 05:56 SW 13 12.87 Overcast OVC011 11.1 11.1 100% 76.5 1019.9
05 04:56 SW 11 9.66 Fog/Mist OVC005 11.1 11.1 100% 76.5 1019.8
05 02:56 W 17 4.02 Fog/Mist OVC003 11.7 11.7 100% 76.45 1019.2
05 01:56 W 26 G 33 11.27 Overcast OVC005 11.7 11.1 96% 76.45 1019.3
05 00:56 SW 13 16.09 Overcast OVC005 11.1 11.1 100% 76.4 1018.6
04 23:56 SW 13 16.09 Overcast OVC007 11.1 11.1 100% 76.38 1018.2
04 22:56 SW 17 G 33 12.87 Overcast BKN003 OVC007 12.2 12.2 100% 76.35 1017.8
04 21:56 S 20 12.87 Light Rain OVC005 12.2 12.2 13.3 12.2 100% 76.3 1017.3
04 20:56 S 24 G 31 12.87 Light Rain OVC007 12.2 12.2 100% 76.33 1017.6
04 19:56 S 19 4.02 Heavy Rain Fog/Mist OVC005 12.2 12.2 100% 76.33 1017.7
04 18:56 S 22 8.05 Light Rain Fog/Mist OVC005 12.2 12.2 100% 76.4 1018.4
04 17:56 S 15 11.27 Overcast OVC005 12.8 12.2 96% 76.43 1019.0
04 16:56 S 17 11.27 Overcast OVC007 12.8 12.2 96% 76.5 1019.9
04 15:56 S 13 16.09 Overcast OVC007 13.3 12.8 13.3 12.2 97% 76.53 1020.3
04 14:56 SW 11 16.09 Overcast OVC005 13.3 12.8 97% 76.58 1021.0
04 13:56 S 11 14.48 Overcast OVC003 13.3 12.8 97% 76.58 1021.0
04 12:56 Calm 12.87 Overcast OVC005 12.8 12.8 100% 76.61 1021.1
04 11:56 S 13 16.09 Overcast OVC003 12.8 12.8 100% 76.58 1021.1
04 10:56 S 7 4.83 Light Rain Fog/Mist OVC003 12.8 12.8 100% 76.61 1021.2
04 09:56 Vrbl 6 1.61 Fog/Mist OVC003 12.2 12.2 12.2 11.7 100% 76.61 1021.3
04 08:56 E 9 1.21 Fog/Mist OVC003 12.2 12.2 100% 76.63 1021.5
04 07:56 Vrbl 6 0.80 Light Rain Fog OVC003 12.2 11.7 97% 76.63 1021.6
04 06:56 E 9 12.87 Light Rain OVC003 12.2 11.7 97% 76.66 1022.0
04 05:56 Calm 16.09 Light Rain OVC003 11.7 11.7 100% 76.68 1022.2
04 04:56 Calm 3.22 Light Rain Fog/Mist OVC003 11.7 11.7 100% 76.68 1022.4
04 03:56 Calm 2.41 Light Rain Fog/Mist OVC003 11.7 11.7 11.7 11.1 100% 76.71 1022.5
04 02:56 SW 6 16.09 Overcast OVC005 11.7 11.7 100% 76.73 1023.0
04 01:56 S 9 2.82 Light Rain Fog/Mist OVC005 11.1 11.1 100% 76.73 1022.9
04 00:56 S 9 2.41 Light Rain Fog/Mist OVC005 11.1 11.1 100% 76.76 1023.1
03 23:56 S 7 2.82 Fog/Mist OVC005 11.1 11.1 100% 76.73 1023.1
03 22:56 SW 7 3.22 Fog/Mist OVC005 11.1 11.1 100% 76.76 1023.3
03 21:56 S 13 2.41 Fog/Mist OVC002 11.1 11.1 12.2 11.1 100% 76.76 1023.2
03 20:56 S 9 0.80 Light Rain Fog OVC002 11.7 11.7 100% 76.73 1023.1
03 19:56 S 9 0.40 Light Rain Fog OVC002 11.7 11.7 100% 76.76 1023.3
03 18:56 Calm 6.44 Fog/Mist OVC002 11.7 11.7 100% 76.76 1023.2
03 17:56 W 17 16.09 Overcast OVC006 12.2 12.2 100% 76.76 1023.3
03 16:56 Calm 6.44 Fog/Mist OVC003 11.7 11.7 100% 76.76 1023.4
03 15:56 W 13 2.01 Fog/Mist OVC003 11.7 11.7 12.8 11.1 100% 76.78 1023.7
03 14:56 W 20 4.02 Fog/Mist OVC005 12.2 11.7 97% 76.78 1023.7
03 13:56 SW 13 8.05 Fog/Mist OVC005 12.2 11.7 97% 76.78 1023.8
03 12:56 SW 9 16.09 Overcast OVC005 12.2 11.7 97% 76.76 1023.4
03 11:56 S 11 12.87 Overcast OVC003 11.7 11.7 100% 76.71 1022.7
03 10:56 Vrbl 7 4.02 Fog/Mist OVC003 11.1 11.1 100% 76.68 1022.4
03 09:56 SW 13 2.82 Fog/Mist OVC003 11.1 11.1 11.7 11.1 100% 76.68 1022.4
03 08:56 W 15 12.87 Overcast BKN004 OVC012 11.1 11.1 100% 76.66 1021.9
03 07:56 SW 7 2.41 Light Rain Fog/Mist OVC004 11.1 11.1 100% 76.63 1021.7
03 05:56 W 6 4.02 Light Rain Fog/Mist OVC004 11.1 11.1 100% 76.63 1021.6
03 04:56 W 19 12.87 Overcast FEW004 OVC009 11.1 11.1 100% 76.61 1021.2
03 03:56 W 15 2.82 Fog/Mist OVC004 11.1 11.1 13.3 10.6 100% 76.58 1020.9
03 01:56 W 19 16.09 Fair CLR 12.2 12.2 100% 76.53 1020.3
03 00:56 Calm 16.09 Fair CLR 10.6 10.6 100% 76.5 1020.0
02 23:56 Calm 16.09 Fair CLR 11.1 11.1 100% 76.5 1020.0
02 22:56 W 11 16.09 Fair CLR 11.7 11.1 96% 76.5 1019.7
02 21:56 W 11 16.09 A Few Clouds FEW110 12.8 11.7 17.2 12.2 93% 76.48 1019.5
02 20:56 SW 19 16.09 Fair CLR 12.8 10.6 87% 76.43 1019.0
02 19:56 NW 11 16.09 Overcast OVC029 16.1 11.7 75% 76.4 1018.5
02 18:56 NW 22 G 31 16.09 A Few Clouds FEW025 16.1 11.1 72% 76.38 1018.1
02 17:56 NW 30 G 39 16.09 Overcast OVC025 15.6 10 70% 76.3 1017.3
02 16:56 NW 39 G 48 16.09 Fair and Breezy CLR 16.7 10 65% 76.25 1016.5
02 15:56 NW 39 G 48 16.09 Fair and Breezy CLR 16.7 9.4 16.7 12.2 62% 76.25 1016.4
02 14:56 NW 39 G 56 16.09 Fair and Breezy CLR 16.1 5 48% 76.23 1016.2
02 13:56 NW 41 G 56 16.09 Fair and Breezy CLR 16.1 2.8 41% 76.15 1015.3
02 12:56 NW 39 G 56 16.09 Fair and Breezy CLR 15 3.3 46% 76.12 1014.8
02 11:56 NW 48 G 67 16.09 Fair and Windy CLR 13.9 5 55% 76.05 1013.8
Date Time (akdt) Wind (kph) Vis. (km) Weather Sky Cond. Air Dwpt Max. Min. Relative Humidity Wind Chill (°C) Heat Index (°C) altimeter (cm) sea level (mb) 1 hr 3 hr 6 hr
6 hour
Temperature (ºC) Pressure Precipitation (cm)